Weather History for KHYR - March, 2015

Change the Weather History Date:

Sunday, March 29, 2015

  Actual Average Record
Temperature  
Mean Temperature 38 °F -  
Max Temperature 44 °F - - ()
Min Temperature 28 °F - - ()
Degree Days  
Heating Degree Days 27    
Moisture  
Dew Point 28 °F    
Average Humidity 77    
Maximum Humidity 96    
Minimum Humidity 42    
Precipitation  
Precipitation 0.29 in - - ()
Sea Level Pressure  
Sea Level Pressure 29.66 in    
Wind  
Wind Speed 14 mph (SW)    
Max Wind Speed 22 mph    
Max Gust Speed 31 mph    
Visibility 6 miles    
Events Rain , Snow    
T = Trace of Precipitation, MM = Missing Value Source: NWS Daily Summary

Daily Weather History Graph

Daily Weather History Graph

Search for Another Location

Airport or City:

Trip Planner

Search our weather history database for the weather conditions in past years. The results will help you decide how hot, cold, wet, or windy it might be!

Date:

Astronomy

Mar. 29, 2015 Rise Set
Actual Time 6:51 AM CDT 7:30 PM CDT
Civil Twilight 6:21 AM CDT 8:00 PM CDT
Nautical Twilight 5:46 AM CDT 8:36 PM CDT
Astronomical Twilight 5:09 AM CDT 9:13 PM CDT
Moon 2:10 PM CDT (3/29) 3:54 AM CDT (3/29)
Length of Visible Light 13h 38m
Length of Day
12h 38m
Waxing Gibbous, 72% of the Moon is Illuminated
Mar 29
Waxing Gibbous
Apr 4
Full
Apr 11
Last Quarter
Apr 18
New
Apr 25
First Quarter

Hourly Weather History & Observations

Time (CDT) Temp. Windchill Dew Point Humidity Pressure Visibility Wind Dir Wind Speed Gust Speed Precip Events Conditions
12:53 AM 35.1 °F 24.1 °F 14.0 °F 42% 29.94 in 10.0 mi South 19.6 mph 31.1 mph N/A   Clear
1:53 AM 34.0 °F 23.0 °F 14.0 °F 44% 29.91 in 10.0 mi South 18.4 mph 28.8 mph N/A   Clear
2:53 AM 34.0 °F 22.7 °F 14.0 °F 44% 29.88 in 10.0 mi South 19.6 mph 29.9 mph N/A   Clear
3:53 AM 34.0 °F 25.0 °F 15.1 °F 46% 29.88 in 10.0 mi SSW 12.7 mph 24.2 mph N/A   Clear
4:53 AM 33.1 °F 23.4 °F 16.0 °F 50% 29.79 in 10.0 mi South 13.8 mph - N/A   Scattered Clouds
5:53 AM 34.0 °F 22.1 °F 19.0 °F 54% 29.72 in 10.0 mi South 21.9 mph 28.8 mph 0.00 in Rain Light Rain
6:19 AM 32.0 °F 20.8 °F 24.1 °F 73% 29.66 in 7.0 mi South 17.3 mph 25.3 mph 0.01 in Rain Light Freezing Rain
6:32 AM 32.0 °F 21.2 °F 25.0 °F 75% 29.65 in 7.0 mi South 16.1 mph - 0.03 in Rain Light Freezing Rain
6:39 AM 33.1 °F 23.4 °F 25.0 °F 72% 29.65 in 8.0 mi South 13.8 mph 28.8 mph 0.03 in Rain Light Freezing Rain
6:53 AM 33.1 °F 22.2 °F 26.1 °F 75% 29.68 in 6.0 mi South 17.3 mph 28.8 mph 0.05 in Rain Light Freezing Rain
7:05 AM 33.1 °F 22.2 °F 26.1 °F 75% 29.64 in 8.0 mi South 17.3 mph - 0.01 in Rain Light Freezing Rain
7:24 AM 33.1 °F 21.5 °F 27.0 °F 78% 29.64 in 7.0 mi SSW 19.6 mph 28.8 mph 0.01 in Snow Light Snow
7:53 AM 33.1 °F 21.9 °F 27.0 °F 78% 29.66 in 10.0 mi South 18.4 mph 26.5 mph 0.01 in   Overcast
8:53 AM 33.1 °F 21.9 °F 28.0 °F 82% 29.61 in 10.0 mi South 18.4 mph 27.6 mph N/A   Overcast
9:53 AM 34.0 °F 22.7 °F 28.9 °F 82% 29.58 in 10.0 mi SSW 19.6 mph - N/A   Overcast
10:35 AM 33.1 °F 23.0 °F 30.0 °F 89% 29.51 in 1.8 mi SSW 15.0 mph - 0.00 in Snow Light Snow
10:53 AM 33.1 °F 23.0 °F 30.0 °F 89% 29.55 in 1.8 mi SSW 15.0 mph - 0.00 in Snow Light Snow
10:57 AM 33.1 °F 23.9 °F 30.0 °F 89% 29.51 in 2.5 mi South 12.7 mph - 0.00 in Snow Light Snow
11:16 AM 33.1 °F 24.9 °F 30.9 °F 92% 29.51 in 1.0 mi SSW 10.4 mph - 0.05 in Snow Light Snow
11:32 AM 33.1 °F 24.9 °F 30.9 °F 92% 29.51 in 2.0 mi SSW 10.4 mph - 0.08 in Snow Light Snow
11:48 AM 33.8 °F 27.0 °F 30.2 °F 87% 29.51 in 1.0 mi SSW 8.1 mph - 0.09 in Snow Light Snow
11:53 AM 33.1 °F 26.1 °F 30.9 °F 92% 29.55 in 0.8 mi SSW 8.1 mph - 0.09 in Snow Light Snow
12:03 PM 33.1 °F 26.1 °F 32.0 °F 96% 29.51 in 1.2 mi SSW 8.1 mph - 0.01 in Snow Light Snow
12:13 PM 33.1 °F 25.5 °F 30.9 °F 92% 29.51 in 2.5 mi SSW 9.2 mph - 0.03 in Snow Light Snow
12:20 PM 33.1 °F 26.9 °F 30.9 °F 92% 29.51 in 3.0 mi SSW 6.9 mph - 0.03 in Snow Light Snow
12:42 PM 34.0 °F 28.8 °F 32.0 °F 92% 29.52 in 3.0 mi SW 5.8 mph - 0.03 in   Overcast
12:53 PM 34.0 °F 28.8 °F 32.0 °F 92% 29.56 in 2.5 mi SW 5.8 mph - 0.03 in Snow Light Snow
1:14 PM 34.0 °F 27.2 °F 33.1 °F 96% 29.53 in 1.2 mi West 8.1 mph - 0.01 in Snow Light Snow
1:20 PM 34.0 °F 27.2 °F 32.0 °F 92% 29.53 in 0.8 mi WSW 8.1 mph - 0.03 in Snow Light Snow
1:47 PM 33.8 °F 28.6 °F 32.0 °F 93% 29.56 in 1.2 mi West 5.8 mph - 0.07 in Snow Light Snow
1:48 PM 34.0 °F 28.8 °F 32.0 °F 92% 29.60 in 1.2 mi Variable 5.8 mph - 0.07 in Snow Light Snow
1:53 PM 34.0 °F 27.2 °F 32.0 °F 92% 29.56 in 2.5 mi West 8.1 mph - 0.00 in Snow Light Snow
2:00 PM 34.0 °F 27.2 °F 32.0 °F 92% 29.56 in 6.0 mi West 8.1 mph - 0.00 in Snow Light Snow
2:53 PM 37.0 °F - 34.0 °F 89% 29.63 in 6.0 mi North - - 0.00 in Rain Light Rain
3:01 PM 37.0 °F 31.6 °F 35.1 °F 93% 29.59 in 10.0 mi Variable 6.9 mph - 0.00 in Rain Light Rain
3:40 PM 39.0 °F 33.4 °F 34.0 °F 82% 29.63 in 10.0 mi NW 8.1 mph 20.7 mph 0.04 in Rain Light Rain
3:53 PM 39.0 °F 31.8 °F 33.1 °F 79% 29.68 in 10.0 mi WNW 11.5 mph 24.2 mph 0.04 in   Overcast
4:10 PM 39.0 °F 33.4 °F 32.0 °F 76% 29.66 in 10.0 mi NW 8.1 mph 24.2 mph N/A   Overcast
4:53 PM 41.0 °F 35.2 °F 30.9 °F 67% 29.72 in 10.0 mi NW 9.2 mph 23.0 mph N/A   Overcast
5:53 PM 42.1 °F 34.9 °F 30.0 °F 62% 29.75 in 10.0 mi NW 13.8 mph 21.9 mph N/A   Mostly Cloudy
6:53 PM 44.1 °F 38.1 °F 28.0 °F 53% 29.78 in 10.0 mi NW 11.5 mph 25.3 mph N/A   Scattered Clouds
7:53 PM 42.1 °F 40.2 °F 27.0 °F 55% 29.82 in 10.0 mi NW 3.5 mph - N/A   Scattered Clouds
8:53 PM 37.0 °F - 28.0 °F 70% 29.86 in 10.0 mi Calm Calm - N/A   Mostly Cloudy
9:53 PM 39.0 °F 35.7 °F 26.1 °F 60% 29.89 in 10.0 mi Variable 4.6 mph - N/A   Clear
10:53 PM 37.9 °F - 25.0 °F 60% 29.90 in 10.0 mi Calm Calm - N/A   Scattered Clouds
11:53 PM 28.9 °F 25.2 °F 25.0 °F 85% 29.91 in 10.0 mi South 3.5 mph - N/A   Clear